Year,Month,Day,Hour,Minute,Value (Times are PST for temperature in C)
2005,07,22,00,00,17.70
2005,07,22,00,01,17.70
2005,07,22,00,02,17.70
2005,07,22,00,03,17.70
2005,07,22,00,04,17.70
2005,07,22,00,05,17.70
2005,07,22,00,06,17.60
2005,07,22,00,07,17.60
2005,07,22,00,08,17.60
2005,07,22,00,09,17.60
2005,07,22,00,10,17.60
2005,07,22,00,11,17.60
2005,07,22,00,12,17.60
2005,07,22,00,13,17.60
2005,07,22,00,14,17.60
2005,07,22,00,15,17.60
2005,07,22,00,16,17.50
2005,07,22,00,17,17.50
2005,07,22,00,18,17.40
2005,07,22,00,19,17.40
2005,07,22,00,20,17.30
2005,07,22,00,21,17.30
2005,07,22,00,22,17.20
2005,07,22,00,23,17.10
2005,07,22,00,24,17.00
2005,07,22,00,25,17.00
2005,07,22,00,26,16.90
2005,07,22,00,27,16.90
2005,07,22,00,28,16.90
2005,07,22,00,29,16.90
2005,07,22,00,30,16.80
2005,07,22,00,31,16.80
2005,07,22,00,32,16.80
2005,07,22,00,33,16.80
2005,07,22,00,34,16.70
2005,07,22,00,35,16.70
2005,07,22,00,36,16.70
2005,07,22,00,37,16.70
2005,07,22,00,38,16.70
2005,07,22,00,39,16.70
2005,07,22,00,40,16.70
2005,07,22,00,41,16.60
2005,07,22,00,42,16.60
2005,07,22,00,43,16.60
2005,07,22,00,44,16.50
2005,07,22,00,45,16.40
2005,07,22,00,46,16.40
2005,07,22,00,47,16.40
2005,07,22,00,48,16.40
2005,07,22,00,49,16.40
2005,07,22,00,50,16.40
2005,07,22,00,51,16.40
2005,07,22,00,52,16.40
2005,07,22,00,53,16.40
2005,07,22,00,54,16.40
2005,07,22,00,55,16.40
2005,07,22,00,56,16.40
2005,07,22,00,57,16.40
2005,07,22,00,58,16.30
2005,07,22,00,59,16.30
2005,07,22,01,00,16.30
2005,07,22,01,01,16.30
2005,07,22,01,02,16.30
2005,07,22,01,03,16.30
2005,07,22,01,04,16.30
2005,07,22,01,05,16.30
2005,07,22,01,06,16.30
2005,07,22,01,07,16.30
2005,07,22,01,08,16.20
2005,07,22,01,09,16.20
2005,07,22,01,10,16.20
2005,07,22,01,11,16.20
2005,07,22,01,12,16.10
2005,07,22,01,13,16.10
2005,07,22,01,14,16.10
2005,07,22,01,15,16.10
2005,07,22,01,16,16.10
2005,07,22,01,17,16.10
2005,07,22,01,18,16.10
2005,07,22,01,19,16.10
2005,07,22,01,20,16.10
2005,07,22,01,21,16.00
2005,07,22,01,22,15.90
2005,07,22,01,23,15.90
2005,07,22,01,24,15.90
2005,07,22,01,25,15.90
2005,07,22,01,26,15.90
2005,07,22,01,27,15.80
2005,07,22,01,28,15.80
2005,07,22,01,29,15.80
2005,07,22,01,30,15.80
2005,07,22,01,31,15.70
2005,07,22,01,32,15.60
2005,07,22,01,33,15.60
2005,07,22,01,34,15.50
2005,07,22,01,35,15.50
2005,07,22,01,36,15.40
2005,07,22,01,37,15.30
2005,07,22,01,38,15.30
2005,07,22,01,39,15.20
2005,07,22,01,40,15.20
2005,07,22,01,41,15.10
2005,07,22,01,42,15.10
2005,07,22,01,43,15.00
2005,07,22,01,44,14.90
2005,07,22,01,45,14.80
2005,07,22,01,46,14.70
2005,07,22,01,47,14.70
2005,07,22,01,48,14.60
2005,07,22,01,49,14.60
2005,07,22,01,50,14.60
2005,07,22,01,51,14.50
2005,07,22,01,52,14.50
2005,07,22,01,53,14.50
2005,07,22,01,54,14.50
2005,07,22,01,55,14.40
2005,07,22,01,56,14.40
2005,07,22,01,57,14.40
2005,07,22,01,58,14.30
2005,07,22,01,59,14.30
2005,07,22,02,00,14.30
2005,07,22,02,01,14.20
2005,07,22,02,02,14.20
2005,07,22,02,03,14.20
2005,07,22,02,04,14.20
2005,07,22,02,05,14.20
2005,07,22,02,06,14.20
2005,07,22,02,07,14.20
2005,07,22,02,08,14.20
2005,07,22,02,09,14.20
2005,07,22,02,10,14.20
2005,07,22,02,11,14.20
2005,07,22,02,12,14.20
2005,07,22,02,13,14.20
2005,07,22,02,14,14.20
2005,07,22,02,15,14.20
2005,07,22,02,16,14.20
2005,07,22,02,17,14.20
2005,07,22,02,18,14.20
2005,07,22,02,19,14.20
2005,07,22,02,20,14.20
2005,07,22,02,21,14.20
2005,07,22,02,22,14.20
2005,07,22,02,23,14.10
2005,07,22,02,24,14.10
2005,07,22,02,25,14.10
2005,07,22,02,26,14.10
2005,07,22,02,27,14.10
2005,07,22,02,28,14.10
2005,07,22,02,29,14.20
2005,07,22,02,30,14.20
2005,07,22,02,31,14.20
2005,07,22,02,32,14.20
2005,07,22,02,33,14.20
2005,07,22,02,34,14.20
2005,07,22,02,35,14.20
2005,07,22,02,36,14.30
2005,07,22,02,37,14.30
2005,07,22,02,38,14.30
2005,07,22,02,39,14.30
2005,07,22,02,40,14.30
2005,07,22,02,41,14.30
2005,07,22,02,42,14.30
2005,07,22,02,43,14.30
2005,07,22,02,44,14.30
2005,07,22,02,45,14.30
2005,07,22,02,46,14.30
2005,07,22,02,47,14.30
2005,07,22,02,48,14.40
2005,07,22,02,49,14.40
2005,07,22,02,50,14.40
2005,07,22,02,51,14.40
2005,07,22,02,52,14.40
2005,07,22,02,53,14.40
2005,07,22,02,54,14.40
2005,07,22,02,55,14.40
2005,07,22,02,56,14.40
2005,07,22,02,57,14.40
2005,07,22,02,58,14.40
2005,07,22,02,59,14.40
2005,07,22,03,00,14.40
2005,07,22,03,01,14.40
2005,07,22,03,02,14.40
2005,07,22,03,03,14.40
2005,07,22,03,04,14.40
2005,07,22,03,05,14.40
2005,07,22,03,06,14.40
2005,07,22,03,07,14.40
2005,07,22,03,08,14.40
2005,07,22,03,09,14.50
2005,07,22,03,10,14.50
2005,07,22,03,11,14.50
2005,07,22,03,12,14.50
2005,07,22,03,13,14.50
2005,07,22,03,14,14.50
2005,07,22,03,15,14.50
2005,07,22,03,16,14.50
2005,07,22,03,17,14.50
2005,07,22,03,18,14.50
2005,07,22,03,19,14.50
2005,07,22,03,20,14.50
2005,07,22,03,21,14.50
2005,07,22,03,22,14.50
2005,07,22,03,23,14.60
2005,07,22,03,24,14.60
2005,07,22,03,25,14.60
2005,07,22,03,26,14.60
2005,07,22,03,27,14.60
2005,07,22,03,28,14.60
2005,07,22,03,29,14.60
2005,07,22,03,30,14.60
2005,07,22,03,31,14.60
2005,07,22,03,32,14.60
2005,07,22,03,33,14.60
2005,07,22,03,34,14.60
2005,07,22,03,35,14.60
2005,07,22,03,36,14.60
2005,07,22,03,37,14.60
2005,07,22,03,38,14.60
2005,07,22,03,39,14.60
2005,07,22,03,40,14.60
2005,07,22,03,41,14.60
2005,07,22,03,42,14.60
2005,07,22,03,43,14.70
2005,07,22,03,44,14.70
2005,07,22,03,45,14.60
2005,07,22,03,46,14.60
2005,07,22,03,47,14.60
2005,07,22,03,48,14.60
2005,07,22,03,49,14.60
2005,07,22,03,50,14.60
2005,07,22,03,51,14.60
2005,07,22,03,52,14.50
2005,07,22,03,53,14.50
2005,07,22,03,54,14.50
2005,07,22,03,55,14.60
2005,07,22,03,56,14.60
2005,07,22,03,57,14.60
2005,07,22,03,58,14.60
2005,07,22,03,59,14.60
2005,07,22,04,00,14.70
2005,07,22,04,01,14.70
2005,07,22,04,02,14.70
2005,07,22,04,03,14.70
2005,07,22,04,04,14.70
2005,07,22,04,05,14.70
2005,07,22,04,06,14.70
2005,07,22,04,07,14.60
2005,07,22,04,08,14.60
2005,07,22,04,09,14.60
2005,07,22,04,10,14.60
2005,07,22,04,11,14.60
2005,07,22,04,12,14.60
2005,07,22,04,13,14.60
2005,07,22,04,14,14.60
2005,07,22,04,15,14.60
2005,07,22,04,16,14.60
2005,07,22,04,17,14.60
2005,07,22,04,18,14.60
2005,07,22,04,19,14.50
2005,07,22,04,20,14.50
2005,07,22,04,21,14.50
2005,07,22,04,22,14.60
2005,07,22,04,23,14.60
2005,07,22,04,24,14.60
2005,07,22,04,25,14.60
2005,07,22,04,26,14.60
2005,07,22,04,27,14.60
2005,07,22,04,28,14.70
2005,07,22,04,29,14.70
2005,07,22,04,30,14.70
2005,07,22,04,31,14.70
2005,07,22,04,32,14.70
2005,07,22,04,33,14.70
2005,07,22,04,34,14.70
2005,07,22,04,35,14.70
2005,07,22,04,36,14.80
2005,07,22,04,37,14.80
2005,07,22,04,38,14.80
2005,07,22,04,39,14.80
2005,07,22,04,40,14.80
2005,07,22,04,41,14.80
2005,07,22,04,42,14.80
2005,07,22,04,43,14.80
2005,07,22,04,44,14.80
2005,07,22,04,45,14.80
2005,07,22,04,46,14.80
2005,07,22,04,47,14.80
2005,07,22,04,48,14.90
2005,07,22,04,49,14.90
2005,07,22,04,50,15.00
2005,07,22,04,51,15.00
2005,07,22,04,52,15.00
2005,07,22,04,53,15.10
2005,07,22,04,54,15.10
2005,07,22,04,55,15.10
2005,07,22,04,56,15.10
2005,07,22,04,57,15.10
2005,07,22,04,58,15.10
2005,07,22,04,59,15.10
2005,07,22,05,00,15.10
2005,07,22,05,01,15.10
2005,07,22,05,02,15.10
2005,07,22,05,03,15.10
2005,07,22,05,04,15.10
2005,07,22,05,05,15.10
2005,07,22,05,06,15.10
2005,07,22,05,07,15.10
2005,07,22,05,08,15.10
2005,07,22,05,09,15.20
2005,07,22,05,10,15.20
2005,07,22,05,11,15.20
2005,07,22,05,12,15.20
2005,07,22,05,13,15.20
2005,07,22,05,14,15.20
2005,07,22,05,15,15.20
2005,07,22,05,16,15.20
2005,07,22,05,17,15.20
2005,07,22,05,18,15.20
2005,07,22,05,19,15.20
2005,07,22,05,20,15.20
2005,07,22,05,21,15.20
2005,07,22,05,22,15.20
2005,07,22,05,23,15.10
2005,07,22,05,24,15.10
2005,07,22,05,25,15.10
2005,07,22,05,26,15.10
2005,07,22,05,27,15.10
2005,07,22,05,28,15.10
2005,07,22,05,29,15.10
2005,07,22,05,30,15.10
2005,07,22,05,31,15.10
2005,07,22,05,32,15.10
2005,07,22,05,33,15.10
2005,07,22,05,34,15.10
2005,07,22,05,35,15.10
2005,07,22,05,36,15.10
2005,07,22,05,37,15.20
2005,07,22,05,38,15.20
2005,07,22,05,39,15.20
2005,07,22,05,40,15.20
2005,07,22,05,41,15.20
2005,07,22,05,42,15.20
2005,07,22,05,43,15.20
2005,07,22,05,44,15.20
2005,07,22,05,45,15.20
2005,07,22,05,46,15.20
2005,07,22,05,47,15.20
2005,07,22,05,48,15.10
2005,07,22,05,49,15.10
2005,07,22,05,50,15.10
2005,07,22,05,51,15.20
2005,07,22,05,52,15.20
2005,07,22,05,53,15.20
2005,07,22,05,54,15.20
2005,07,22,05,55,15.30
2005,07,22,05,56,15.30
2005,07,22,05,57,15.30
2005,07,22,05,58,15.30
2005,07,22,05,59,15.30
2005,07,22,06,00,15.30
2005,07,22,06,01,15.30
2005,07,22,06,02,15.30
2005,07,22,06,03,15.30
2005,07,22,06,04,15.30
2005,07,22,06,05,15.30
2005,07,22,06,06,15.30
2005,07,22,06,07,15.30
2005,07,22,06,08,15.30
2005,07,22,06,09,15.30
2005,07,22,06,10,15.20
2005,07,22,06,11,15.20
2005,07,22,06,12,15.20
2005,07,22,06,13,15.10
2005,07,22,06,14,15.10
2005,07,22,06,15,15.10
2005,07,22,06,16,15.10
2005,07,22,06,17,15.00
2005,07,22,06,18,15.00
2005,07,22,06,19,15.00
2005,07,22,06,20,15.00
2005,07,22,06,21,15.00
2005,07,22,06,22,15.00
2005,07,22,06,23,15.00
2005,07,22,06,24,15.00
2005,07,22,06,25,15.10
2005,07,22,06,26,15.10
2005,07,22,06,27,15.20
2005,07,22,06,28,15.20
2005,07,22,06,29,15.20
2005,07,22,06,30,15.20
2005,07,22,06,31,15.20
2005,07,22,06,32,15.20
2005,07,22,06,33,15.20
2005,07,22,06,34,15.30
2005,07,22,06,35,15.30
2005,07,22,06,36,15.30
2005,07,22,06,37,15.30
2005,07,22,06,38,15.30
2005,07,22,06,39,15.20
2005,07,22,06,40,15.20
2005,07,22,06,41,15.20
2005,07,22,06,42,15.20
2005,07,22,06,43,15.20
2005,07,22,06,44,15.20
2005,07,22,06,45,15.20
2005,07,22,06,46,15.20
2005,07,22,06,47,15.20
2005,07,22,06,48,15.20
2005,07,22,06,49,15.20
2005,07,22,06,50,15.20
2005,07,22,06,51,15.20
2005,07,22,06,52,15.20
2005,07,22,06,53,15.20
2005,07,22,06,54,15.20
2005,07,22,06,55,15.30
2005,07,22,06,56,15.30
2005,07,22,06,57,15.30
2005,07,22,06,58,15.30
2005,07,22,06,59,15.30
2005,07,22,07,00,15.30
2005,07,22,07,01,15.40
2005,07,22,07,02,15.40
2005,07,22,07,03,15.40
2005,07,22,07,04,15.40
2005,07,22,07,05,15.40
2005,07,22,07,06,15.40
2005,07,22,07,07,15.40
2005,07,22,07,08,15.40
2005,07,22,07,09,15.40
2005,07,22,07,10,15.40
2005,07,22,07,11,15.50
2005,07,22,07,12,15.50
2005,07,22,07,13,15.40
2005,07,22,07,14,15.40
2005,07,22,07,15,15.40
2005,07,22,07,16,15.40
2005,07,22,07,17,15.40
2005,07,22,07,18,15.40
2005,07,22,07,19,15.40
2005,07,22,07,20,15.50
2005,07,22,07,21,15.50
2005,07,22,07,22,15.40
2005,07,22,07,23,15.40
2005,07,22,07,24,15.40
2005,07,22,07,25,15.40
2005,07,22,07,26,15.30
2005,07,22,07,27,15.30
2005,07,22,07,28,15.30
2005,07,22,07,29,15.30
2005,07,22,07,30,15.30
2005,07,22,07,31,15.30
2005,07,22,07,32,15.30
2005,07,22,07,33,15.30
2005,07,22,07,34,15.30
2005,07,22,07,35,15.30
2005,07,22,07,36,15.30
2005,07,22,07,37,15.30
2005,07,22,07,38,15.20
2005,07,22,07,39,15.20
2005,07,22,07,40,15.20
2005,07,22,07,41,15.20
2005,07,22,07,42,15.20
2005,07,22,07,43,15.20
2005,07,22,07,44,15.20
2005,07,22,07,45,15.20
2005,07,22,07,46,15.20
2005,07,22,07,47,15.20
2005,07,22,07,48,15.20
2005,07,22,07,49,15.30
2005,07,22,07,50,15.30
2005,07,22,07,51,15.30
2005,07,22,07,52,15.30
2005,07,22,07,53,15.40
2005,07,22,07,54,15.40
2005,07,22,07,55,15.50
2005,07,22,07,56,15.50
2005,07,22,07,57,15.50
2005,07,22,07,58,15.50
2005,07,22,07,59,15.50
2005,07,22,08,00,15.50
2005,07,22,08,01,15.50
2005,07,22,08,02,15.50
2005,07,22,08,03,15.50
2005,07,22,08,04,15.50
2005,07,22,08,05,15.50
2005,07,22,08,06,15.50
2005,07,22,08,07,15.50
2005,07,22,08,08,15.50
2005,07,22,08,09,15.60
2005,07,22,08,10,15.60
2005,07,22,08,11,15.70
2005,07,22,08,12,15.70
2005,07,22,08,13,15.70
2005,07,22,08,14,15.70
2005,07,22,08,15,15.80
2005,07,22,08,16,15.80
2005,07,22,08,17,15.80
2005,07,22,08,18,15.80
2005,07,22,08,19,15.80
2005,07,22,08,20,15.90
2005,07,22,08,21,15.90
2005,07,22,08,22,15.90
2005,07,22,08,23,16.10
2005,07,22,08,24,16.10
2005,07,22,08,25,16.10
2005,07,22,08,26,16.10
2005,07,22,08,27,16.10
2005,07,22,08,28,16.10
2005,07,22,08,29,16.10
2005,07,22,08,30,16.20
2005,07,22,08,31,16.20
2005,07,22,08,32,16.20
2005,07,22,08,33,16.20
2005,07,22,08,34,16.20
2005,07,22,08,35,16.20
2005,07,22,08,36,16.30
2005,07,22,08,37,16.30
2005,07,22,08,38,16.30
2005,07,22,08,39,16.40
2005,07,22,08,40,16.40
2005,07,22,08,41,16.40
2005,07,22,08,42,16.30
2005,07,22,08,43,16.30
2005,07,22,08,44,16.30
2005,07,22,08,45,16.30
2005,07,22,08,46,16.40
2005,07,22,08,47,16.40
2005,07,22,08,48,16.40
2005,07,22,08,49,16.40
2005,07,22,08,50,16.40
2005,07,22,08,51,16.40
2005,07,22,08,52,16.50
2005,07,22,08,53,16.60
2005,07,22,08,54,16.60
2005,07,22,08,55,16.70
2005,07,22,08,56,16.70
2005,07,22,08,57,16.70
2005,07,22,08,58,16.70
2005,07,22,08,59,16.70
2005,07,22,09,00,16.70
2005,07,22,09,01,16.70
2005,07,22,09,02,16.80
2005,07,22,09,03,16.80
2005,07,22,09,04,16.80
2005,07,22,09,05,16.90
2005,07,22,09,06,16.90
2005,07,22,09,07,16.90
2005,07,22,09,08,17.00
2005,07,22,09,09,17.00
2005,07,22,09,10,17.00
2005,07,22,09,11,17.10
2005,07,22,09,12,17.20
2005,07,22,09,13,17.30
2005,07,22,09,14,17.30
2005,07,22,09,15,17.30
2005,07,22,09,16,17.30
2005,07,22,09,17,17.30
2005,07,22,09,18,17.30
2005,07,22,09,19,17.30
2005,07,22,09,20,17.40
2005,07,22,09,21,17.40
2005,07,22,09,22,17.50
2005,07,22,09,23,17.50
2005,07,22,09,24,17.50
2005,07,22,09,25,17.50
2005,07,22,09,26,17.50
2005,07,22,09,27,17.50
2005,07,22,09,28,17.50
2005,07,22,09,29,17.50
2005,07,22,09,30,17.50
2005,07,22,09,31,17.60
2005,07,22,09,32,17.50
2005,07,22,09,33,17.50
2005,07,22,09,34,17.50
2005,07,22,09,35,17.50
2005,07,22,09,36,17.50
2005,07,22,09,37,17.50
2005,07,22,09,38,17.40
2005,07,22,09,39,17.40
2005,07,22,09,40,17.30
2005,07,22,09,41,17.20
2005,07,22,09,42,17.20
2005,07,22,09,43,17.10
2005,07,22,09,44,17.00
2005,07,22,09,45,17.00
2005,07,22,09,46,17.00
2005,07,22,09,47,16.90
2005,07,22,09,48,16.90
2005,07,22,09,49,16.90
2005,07,22,09,50,16.80
2005,07,22,09,51,16.80
2005,07,22,09,52,16.70
2005,07,22,09,53,16.80
2005,07,22,09,54,16.80
2005,07,22,09,55,16.90
2005,07,22,09,56,16.90
2005,07,22,09,57,17.00
2005,07,22,09,58,17.00
2005,07,22,09,59,17.10
2005,07,22,10,00,17.20
2005,07,22,10,01,17.20
2005,07,22,10,02,17.30
2005,07,22,10,03,17.30
2005,07,22,10,04,17.40
2005,07,22,10,05,17.50
2005,07,22,10,06,17.50
2005,07,22,10,07,17.60
2005,07,22,10,08,17.70
2005,07,22,10,09,17.80
2005,07,22,10,10,17.90
2005,07,22,10,11,17.90
2005,07,22,10,12,18.00
2005,07,22,10,13,18.10
2005,07,22,10,14,18.20
2005,07,22,10,15,18.20
2005,07,22,10,16,18.20
2005,07,22,10,17,18.30
2005,07,22,10,18,18.30
2005,07,22,10,19,18.20
2005,07,22,10,20,18.10
2005,07,22,10,21,17.90
2005,07,22,10,22,17.70
2005,07,22,10,23,17.60
2005,07,22,10,24,17.50
2005,07,22,10,25,17.40
2005,07,22,10,26,17.40
2005,07,22,10,27,17.50
2005,07,22,10,28,17.50
2005,07,22,10,29,17.60
2005,07,22,10,30,17.60
2005,07,22,10,31,17.60
2005,07,22,10,32,17.60
2005,07,22,10,33,17.70
2005,07,22,10,34,17.70
2005,07,22,10,35,17.70
2005,07,22,10,36,17.70
2005,07,22,10,37,17.70
2005,07,22,10,38,17.60
2005,07,22,10,39,17.50
2005,07,22,10,40,17.30
2005,07,22,10,41,17.30
2005,07,22,10,42,17.40
2005,07,22,10,43,17.40
2005,07,22,10,44,17.50
2005,07,22,10,45,17.50
2005,07,22,10,46,17.60
2005,07,22,10,47,17.70
2005,07,22,10,48,17.70
2005,07,22,10,49,17.70
2005,07,22,10,50,17.70
2005,07,22,10,51,17.70
2005,07,22,10,52,17.60
2005,07,22,10,53,17.60
2005,07,22,10,54,17.60
2005,07,22,10,55,17.60
2005,07,22,10,56,17.60
2005,07,22,10,57,17.60
2005,07,22,10,58,17.70
2005,07,22,10,59,17.80
2005,07,22,11,00,17.90
2005,07,22,11,01,17.90
2005,07,22,11,02,17.90
2005,07,22,11,03,17.90
2005,07,22,11,04,17.90
2005,07,22,11,05,17.90
2005,07,22,11,06,17.90
2005,07,22,11,07,17.90
2005,07,22,11,08,17.90
2005,07,22,11,09,17.90
2005,07,22,11,10,17.80
2005,07,22,11,11,17.80
2005,07,22,11,12,17.80
2005,07,22,11,13,17.70
2005,07,22,11,14,17.70
2005,07,22,11,15,17.70
2005,07,22,11,16,17.60
2005,07,22,11,17,17.60
2005,07,22,11,18,17.40
2005,07,22,11,19,17.30
2005,07,22,11,20,17.30
2005,07,22,11,21,17.30
2005,07,22,11,22,17.30
2005,07,22,11,23,17.30
2005,07,22,11,24,17.30
2005,07,22,11,25,17.20
2005,07,22,11,26,17.10
2005,07,22,11,27,17.10
2005,07,22,11,28,17.00
2005,07,22,11,29,17.00
2005,07,22,11,30,17.00
2005,07,22,11,31,16.90
2005,07,22,11,32,16.90
2005,07,22,11,33,16.80
2005,07,22,11,34,16.70
2005,07,22,11,35,16.70
2005,07,22,11,36,16.70
2005,07,22,11,37,16.80
2005,07,22,11,38,16.80
2005,07,22,11,39,16.80
2005,07,22,11,40,16.80
2005,07,22,11,41,16.90
2005,07,22,11,42,16.90
2005,07,22,11,43,16.80
2005,07,22,11,44,16.70
2005,07,22,11,45,16.60
2005,07,22,11,46,16.60
2005,07,22,11,47,16.60
2005,07,22,11,48,16.60
2005,07,22,11,49,16.60
2005,07,22,11,50,16.60
2005,07,22,11,51,16.60
2005,07,22,11,52,16.50
2005,07,22,11,53,16.40
2005,07,22,11,54,16.50
2005,07,22,11,55,16.60
2005,07,22,11,56,16.60
2005,07,22,11,57,16.70
2005,07,22,11,58,16.70
2005,07,22,11,59,16.70
2005,07,22,12,00,16.70
2005,07,22,12,01,16.70
2005,07,22,12,02,16.70
2005,07,22,12,03,16.60
2005,07,22,12,04,16.60
2005,07,22,12,05,16.60
2005,07,22,12,06,16.70
2005,07,22,12,07,16.70
2005,07,22,12,08,16.70
2005,07,22,12,09,16.70
2005,07,22,12,10,16.80
2005,07,22,12,11,16.90
2005,07,22,12,12,16.90
2005,07,22,12,13,16.90
2005,07,22,12,14,16.90
2005,07,22,12,15,16.80
2005,07,22,12,16,16.80
2005,07,22,12,17,16.90
2005,07,22,12,18,16.90
2005,07,22,12,19,16.90
2005,07,22,12,20,16.90
2005,07,22,12,21,16.80
2005,07,22,12,22,16.80
2005,07,22,12,23,16.90
2005,07,22,12,24,17.00
2005,07,22,12,25,17.00
2005,07,22,12,26,17.10
2005,07,22,12,27,17.10
2005,07,22,12,28,17.20
2005,07,22,12,29,17.30
2005,07,22,12,30,17.30
2005,07,22,12,31,17.40
2005,07,22,12,32,17.50
2005,07,22,12,33,17.60
2005,07,22,12,34,17.70
2005,07,22,12,35,17.80
2005,07,22,12,36,17.80
2005,07,22,12,37,17.90
2005,07,22,12,38,17.90
2005,07,22,12,39,18.10
2005,07,22,12,40,18.10
2005,07,22,12,41,18.20
2005,07,22,12,42,18.20
2005,07,22,12,43,18.40
2005,07,22,12,44,18.50
2005,07,22,12,45,18.60
2005,07,22,12,46,18.80
2005,07,22,12,47,18.90
2005,07,22,12,48,19.10
2005,07,22,12,49,19.30
2005,07,22,12,50,19.40
2005,07,22,12,51,19.60
2005,07,22,12,52,19.70
2005,07,22,12,53,19.90
2005,07,22,12,54,20.00
2005,07,22,12,55,20.10
2005,07,22,12,56,20.20
2005,07,22,12,57,20.20
2005,07,22,12,58,20.20
2005,07,22,12,59,20.20
2005,07,22,13,00,20.20
2005,07,22,13,01,20.20
2005,07,22,13,02,20.20
2005,07,22,13,03,20.20
2005,07,22,13,04,20.20
2005,07,22,13,05,20.20
2005,07,22,13,06,20.30
2005,07,22,13,07,20.30
2005,07,22,13,08,20.30
2005,07,22,13,09,20.40
2005,07,22,13,10,20.50
2005,07,22,13,11,20.60
2005,07,22,13,12,20.70
2005,07,22,13,13,20.90
2005,07,22,13,14,21.00
2005,07,22,13,15,21.10
2005,07,22,13,16,21.10
2005,07,22,13,17,21.30
2005,07,22,13,18,21.30
2005,07,22,13,19,21.40
2005,07,22,13,20,21.40
2005,07,22,13,21,21.50
2005,07,22,13,22,21.70
2005,07,22,13,23,21.70
2005,07,22,13,24,21.60
2005,07,22,13,25,21.60
2005,07,22,13,26,21.60
2005,07,22,13,27,21.60
2005,07,22,13,28,21.70
2005,07,22,13,29,21.70
2005,07,22,13,30,21.80
2005,07,22,13,31,21.90
2005,07,22,13,32,22.00
2005,07,22,13,33,22.10
2005,07,22,13,34,22.10
2005,07,22,13,35,22.10
2005,07,22,13,36,22.20
2005,07,22,13,37,22.10
2005,07,22,13,38,22.20
2005,07,22,13,39,22.10
2005,07,22,13,40,22.00
2005,07,22,13,41,22.00
2005,07,22,13,42,22.10
2005,07,22,13,43,22.10
2005,07,22,13,44,22.00
2005,07,22,13,45,22.00
2005,07,22,13,46,22.00
2005,07,22,13,47,22.00
2005,07,22,13,48,22.10
2005,07,22,13,49,22.30
2005,07,22,13,50,22.40
2005,07,22,13,51,22.40
2005,07,22,13,52,22.50
2005,07,22,13,53,22.30
2005,07,22,13,54,22.20
2005,07,22,13,55,22.00
2005,07,22,13,56,21.60
2005,07,22,13,57,21.30
2005,07,22,13,58,21.00
2005,07,22,13,59,21.00
2005,07,22,14,00,21.00
2005,07,22,14,01,21.00
2005,07,22,14,02,21.00
2005,07,22,14,03,21.10
2005,07,22,14,04,21.20
2005,07,22,14,05,21.10
2005,07,22,14,06,21.10
2005,07,22,14,07,21.10
2005,07,22,14,08,21.00
2005,07,22,14,09,20.80
2005,07,22,14,10,20.60
2005,07,22,14,11,20.70
2005,07,22,14,12,20.80
2005,07,22,14,13,20.90
2005,07,22,14,14,20.90
2005,07,22,14,15,21.00
2005,07,22,14,16,21.00
2005,07,22,14,17,21.10
2005,07,22,14,18,21.30
2005,07,22,14,19,21.40
2005,07,22,14,20,21.40
2005,07,22,14,21,21.60
2005,07,22,14,22,21.60
2005,07,22,14,23,21.70
2005,07,22,14,24,21.80
2005,07,22,14,25,21.80
2005,07,22,14,26,21.70
2005,07,22,14,27,21.60
2005,07,22,14,28,21.60
2005,07,22,14,29,21.60
2005,07,22,14,30,21.60
2005,07,22,14,31,21.70
2005,07,22,14,32,21.80
2005,07,22,14,33,21.90
2005,07,22,14,34,22.00
2005,07,22,14,35,22.00
2005,07,22,14,36,22.10
2005,07,22,14,37,22.20
2005,07,22,14,38,22.20
2005,07,22,14,39,22.00
2005,07,22,14,40,21.90
2005,07,22,14,41,21.70
2005,07,22,14,42,21.60
2005,07,22,14,43,21.60
2005,07,22,14,44,21.60
2005,07,22,14,45,21.60
2005,07,22,14,46,21.80
2005,07,22,14,47,21.90
2005,07,22,14,48,22.10
2005,07,22,14,49,22.30
2005,07,22,14,50,22.40
2005,07,22,14,51,22.60
2005,07,22,14,52,22.70
2005,07,22,14,53,22.80
2005,07,22,14,54,22.90
2005,07,22,14,55,23.00
2005,07,22,14,56,23.10
2005,07,22,14,57,23.20
2005,07,22,14,58,23.20
2005,07,22,14,59,23.30
2005,07,22,15,00,23.30
2005,07,22,15,01,23.30
2005,07,22,15,02,23.30
2005,07,22,15,03,23.40
2005,07,22,15,04,23.60
2005,07,22,15,05,23.60
2005,07,22,15,06,23.60
2005,07,22,15,07,23.50
2005,07,22,15,08,23.40
2005,07,22,15,09,23.40
2005,07,22,15,10,23.30
2005,07,22,15,11,23.30
2005,07,22,15,12,23.10
2005,07,22,15,13,23.00
2005,07,22,15,14,22.90
2005,07,22,15,15,22.90
2005,07,22,15,16,22.90
2005,07,22,15,17,22.80
2005,07,22,15,18,22.90
2005,07,22,15,19,22.90
2005,07,22,15,20,23.10
2005,07,22,15,21,23.20
2005,07,22,15,22,23.30
2005,07,22,15,23,23.50
2005,07,22,15,24,23.70
2005,07,22,15,25,23.80
2005,07,22,15,26,23.90
2005,07,22,15,27,24.00
2005,07,22,15,28,24.10
2005,07,22,15,29,24.10
2005,07,22,15,30,24.20
2005,07,22,15,31,24.20
2005,07,22,15,32,24.30
2005,07,22,15,33,24.30
2005,07,22,15,34,24.40
2005,07,22,15,35,24.30
2005,07,22,15,36,24.30
2005,07,22,15,37,24.30
2005,07,22,15,38,24.20
2005,07,22,15,39,24.10
2005,07,22,15,40,24.10
2005,07,22,15,41,24.20
2005,07,22,15,42,24.20
2005,07,22,15,43,24.20
2005,07,22,15,44,24.20
2005,07,22,15,45,24.20
2005,07,22,15,46,24.20
2005,07,22,15,47,24.30
2005,07,22,15,48,24.40
2005,07,22,15,49,24.50
2005,07,22,15,50,24.60
2005,07,22,15,51,24.60
2005,07,22,15,52,24.70
2005,07,22,15,53,24.80
2005,07,22,15,54,24.80
2005,07,22,15,55,24.80
2005,07,22,15,56,24.80
2005,07,22,15,57,24.80
2005,07,22,15,58,24.70
2005,07,22,15,59,24.70
2005,07,22,16,00,24.60
2005,07,22,16,01,24.60
2005,07,22,16,02,24.60
2005,07,22,16,03,24.50
2005,07,22,16,04,24.50
2005,07,22,16,05,24.50
2005,07,22,16,06,24.60
2005,07,22,16,07,24.50
2005,07,22,16,08,24.50
2005,07,22,16,09,24.50
2005,07,22,16,10,24.50
2005,07,22,16,11,24.50
2005,07,22,16,12,24.50
2005,07,22,16,13,24.50
2005,07,22,16,14,24.50
2005,07,22,16,15,24.50
2005,07,22,16,16,24.60
2005,07,22,16,17,24.60
2005,07,22,16,18,24.70
2005,07,22,16,19,24.80
2005,07,22,16,20,24.90
2005,07,22,16,21,24.90
2005,07,22,16,22,24.80
2005,07,22,16,23,24.70
2005,07,22,16,24,24.70
2005,07,22,16,25,24.70
2005,07,22,16,26,24.80
2005,07,22,16,27,24.80
2005,07,22,16,28,24.80
2005,07,22,16,29,24.80
2005,07,22,16,30,24.70
2005,07,22,16,31,24.70
2005,07,22,16,32,24.70
2005,07,22,16,33,24.60
2005,07,22,16,34,24.60
2005,07,22,16,35,24.60
2005,07,22,16,36,24.60
2005,07,22,16,37,24.60
2005,07,22,16,38,24.50
2005,07,22,16,39,24.50
2005,07,22,16,40,24.40
2005,07,22,16,41,24.40
2005,07,22,16,42,24.20
2005,07,22,16,43,24.20
2005,07,22,16,44,24.20
2005,07,22,16,45,24.10
2005,07,22,16,46,24.10
2005,07,22,16,47,24.10
2005,07,22,16,48,24.00
2005,07,22,16,49,24.10
2005,07,22,16,50,24.10
2005,07,22,16,51,24.10
2005,07,22,16,52,24.00
2005,07,22,16,53,23.90
2005,07,22,16,54,23.90
2005,07,22,16,55,23.90
2005,07,22,16,56,23.80
2005,07,22,16,57,23.80
2005,07,22,16,58,23.90
2005,07,22,16,59,23.80
2005,07,22,17,00,23.80
2005,07,22,17,01,23.70
2005,07,22,17,02,23.70
2005,07,22,17,03,23.70
2005,07,22,17,04,23.70
2005,07,22,17,05,23.70
2005,07,22,17,06,23.70
2005,07,22,17,07,23.70
2005,07,22,17,08,23.70
2005,07,22,17,09,23.70
2005,07,22,17,10,23.70
2005,07,22,17,11,23.70
2005,07,22,17,12,23.70
2005,07,22,17,13,23.70
2005,07,22,17,14,23.70
2005,07,22,17,15,23.70
2005,07,22,17,16,23.60
2005,07,22,17,17,23.60
2005,07,22,17,18,23.50
2005,07,22,17,19,23.40